Theta_e
340 341 340 342 343 343 344 344 345 345 346 348 348 349 349 348 350 350 352 354 353 355 354 353 352 352 350 350 350 352 352 353 355 351 351 351 358 361 362 362 362 362 363 362 360 363 360 358 358 361 363 362 359 357 361 359 360 361 362 361 355 353 353 353 353 345 339 335 342 343 342 346 349 343 339 341 343 346 348 348 350 350 349 350 351
340 340 340 341 342 343 344 344 346 343 344 347 346 348 349 349 350 351 353 354 354 356 354 353 353 352 350 350 349 351 351 351 351 351 349 354 361 361 362 362 362 362 363 362 362 360 359 359 359 359 362 361 360 362 361 363 360 359 360 356 357 353 350 353 351 344 337 332 331 335 337 339 345 341 337 339 339 341 345 346 348 349 349 349 350
338 339 340 340 342 342 343 344 345 345 344 346 346 348 349 349 350 352 353 354 354 356 354 352 353 354 352 351 351 350 353 354 352 353 352 351 360 361 362 362 362 362 363 363 361 361 359 357 361 362 363 364 361 360 361 359 358 358 358 352 349 353 352 354 349 344 334 339 340 336 329 327 333 337 337 338 338 339 339 341 345 346 348 348 350
336 337 338 339 341 342 342 343 344 346 345 346 346 347 349 349 349 352 353 355 354 356 356 354 355 355 355 353 352 352 351 353 353 353 353 353 358 361 361 362 362 362 363 363 362 361 359 358 362 363 362 364 362 360 360 360 359 357 357 356 350 346 347 347 350 345 343 338 330 330 330 327 322 323 329 334 338 338 337 338 338 341 343 345 348
336 337 338 338 339 340 341 343 344 346 345 346 346 348 349 348 350 351 353 354 355 357 355 354 356 354 354 354 354 352 352 350 350 349 349 353 354 358 359 361 362 362 362 362 362 361 360 360 362 362 362 363 363 361 360 360 360 359 358 356 354 349 345 344 347 345 344 346 341 330 329 325 325 329 330 331 334 334 336 336 344 337 339 343 345
337 337 337 339 338 340 341 343 343 345 345 347 347 348 349 348 351 352 353 354 354 356 355 355 354 352 350 349 346 347 345 346 345 347 347 348 350 355 360 361 362 361 361 361 361 361 360 362 362 363 362 363 364 363 361 361 360 359 358 354 353 353 346 344 340 349 343 351 345 339 334 328 330 328 325 321 337 343 335 337 338 335 336 337 337
338 338 338 339 338 339 340 342 344 344 346 348 348 348 348 350 350 352 352 353 355 355 355 355 352 352 350 349 347 345 345 346 347 350 351 350 350 349 358 359 360 360 361 361 361 361 361 363 362 362 363 363 367 363 361 361 361 359 360 356 354 356 349 344 337 339 340 341 346 345 345 348 344 326 325 328 323 330 332 332 333 334 334 335 337
338 338 338 339 339 339 340 342 343 344 347 348 349 349 348 351 350 352 352 354 354 355 354 354 352 351 350 350 349 346 349 346 348 349 352 353 350 349 356 357 358 358 359 360 360 360 361 364 363 362 363 364 365 363 362 361 360 362 361 358 358 355 350 346 341 335 331 333 339 337 342 349 340 337 336 325 327 324 327 336 333 333 334 334 335
339 338 338 338 339 339 341 342 344 345 348 348 349 349 349 352 351 351 352 353 353 354 353 353 354 352 350 350 349 349 349 352 352 350 352 356 350 350 354 356 358 358 359 360 360 359 362 363 364 363 363 363 365 364 364 362 359 359 358 355 354 353 351 352 342 336 336 332 330 334 336 337 338 339 343 342 332 325 326 328 327 333 334 333 330
339 340 339 339 340 341 342 343 344 345 347 350 350 351 350 352 352 350 352 352 353 353 353 352 353 353 350 349 349 349 350 352 353 351 351 356 349 349 354 355 357 358 358 359 359 359 361 363 365 365 363 363 364 363 362 362 362 360 358 356 355 351 352 348 343 339 340 335 330 333 332 340 333 330 335 333 335 329 323 325 328 327 326 329 332
339 339 340 340 341 341 342 343 344 345 347 349 349 351 351 353 353 350 352 353 354 353 352 351 352 352 351 349 350 350 350 350 352 351 351 354 351 349 354 355 357 357 358 358 359 359 360 363 365 365 365 364 364 361 361 361 361 361 361 358 354 352 350 343 352 347 347 344 337 334 334 335 332 328 330 332 333 330 327 329 327 326 327 328 331
339 339 339 340 339 340 341 343 343 344 346 348 349 351 352 352 353 351 352 353 354 353 352 352 352 352 352 351 350 352 352 350 352 351 351 351 354 351 353 355 355 356 356 356 358 359 359 361 364 364 364 362 362 362 361 361 361 362 359 357 354 354 350 344 346 341 344 343 341 339 337 341 340 336 337 338 334 332 329 328 329 334 330 330 335
339 338 339 339 339 339 340 343 343 343 345 348 349 351 353 353 353 351 351 353 354 354 352 352 352 352 352 352 352 353 353 352 352 353 353 352 352 354 351 354 354 354 355 354 356 358 358 359 361 361 361 362 362 361 361 361 359 360 359 357 355 354 349 344 344 339 341 340 343 340 338 340 339 340 340 338 340 342 333 330 337 334 330 329 332
339 339 339 339 340 340 340 342 343 344 345 348 350 352 353 353 354 352 352 354 354 355 352 352 352 353 353 353 353 354 354 353 353 353 355 354 354 354 354 352 355 354 355 354 356 358 358 360 361 361 361 362 362 360 360 360 358 358 359 357 356 355 352 348 345 344 339 344 344 338 336 337 337 341 339 339 340 336 333 331 330 335 331 328 333
338 338 339 339 340 341 341 342 344 345 345 347 349 351 354 353 354 353 352 353 354 355 353 352 352 353 354 354 354 354 354 354 354 355 356 355 356 354 355 354 356 356 356 357 358 357 358 359 361 361 362 362 362 361 361 360 360 359 359 357 357 355 355 349 346 346 342 341 343 341 337 336 336 339 337 336 338 335 334 334 335 329 330 331 329
337 337 339 340 341 341 341 342 344 345 345 347 349 351 353 354 354 354 354 354 354 355 355 353 353 353 354 354 354 355 355 355 354 355 356 357 356 356 355 356 355 357 358 359 359 358 358 360 361 361 362 363 361 361 360 359 360 359 357 356 356 358 356 349 348 346 345 340 340 342 342 340 339 339 337 335 335 336 337 337 334 330 326 323 327
336 337 338 340 341 341 341 343 345 345 345 345 347 350 353 355 355 355 355 355 355 355 355 355 354 353 353 354 354 354 354 354 354 354 355 357 357 357 356 357 358 357 358 361 360 358 358 360 361 361 361 362 362 361 361 359 360 359 359 356 355 357 356 349 349 345 346 343 339 341 340 340 342 347 343 338 337 338 337 336 334 331 331 325 322
336 338 339 339 341 341 341 343 345 346 346 345 347 349 353 356 356 355 355 355 355 356 356 356 354 353 353 354 354 354 354 355 355 355 355 355 357 358 358 357 358 359 359 360 360 358 357 362 360 360 361 361 362 361 360 360 360 358 359 358 357 356 355 351 350 347 347 344 341 340 341 342 345 344 344 346 339 336 348 337 338 334 335 331 328
334 336 337 338 339 340 341 342 345 346 347 346 347 351 353 356 358 357 356 357 357 357 357 357 356 355 354 354 354 354 355 355 355 356 355 353 355 358 358 359 360 360 360 358 358 358 358 358 359 359 360 360 361 361 360 360 361 358 358 359 357 355 353 351 350 348 348 347 342 339 340 340 342 344 344 344 346 338 341 343 343 339 339 333 333
333 334 336 337 338 340 341 342 344 345 346 346 347 351 353 355 357 358 358 358 358 357 357 356 356 356 355 355 355 355 355 355 355 355 354 353 353 357 359 359 360 360 360 360 358 358 358 359 358 359 359 360 360 361 361 360 362 359 359 358 358 356 354 350 349 350 349 348 344 340 339 340 341 343 343 343 345 344 341 341 342 341 339 339 336
332 334 335 337 338 339 341 342 344 346 347 348 348 350 353 355 357 358 357 357 357 357 357 357 357 356 356 354 354 354 354 355 355 355 355 354 353 354 357 360 361 360 359 359 358 358 357 358 359 359 359 360 360 360 362 361 361 360 359 359 358 356 355 351 350 348 349 348 346 343 341 341 342 342 341 343 344 345 343 341 343 340 340 340 338
332 333 334 337 338 339 340 341 342 344 348 348 349 351 352 354 357 359 359 358 357 357 357 357 357 357 355 355 354 354 355 356 355 355 355 355 354 354 355 358 359 360 359 357 358 358 358 356 359 359 359 360 360 360 361 362 361 360 359 360 359 357 355 354 350 348 347 349 347 344 342 344 344 342 342 341 343 344 342 340 340 342 338 340 338
333 333 333 335 338 339 340 340 342 344 348 350 351 352 353 355 356 358 359 359 359 358 358 358 358 357 356 355 355 354 355 355 355 355 355 355 355 354 355 355 357 360 360 358 356 358 358 357 356 358 359 359 360 360 361 362 361 360 359 358 359 358 356 354 352 349 348 348 347 345 343 343 347 344 342 342 342 343 343 340 340 340 340 339 340
333 333 333 334 337 339 340 340 342 343 345 349 351 352 353 354 356 358 359 360 360 360 359 358 358 358 357 356 355 355 354 355 355 355 355 355 355 355 355 355 356 358 359 359 356 355 358 358 356 356 357 358 360 360 360 361 361 361 359 357 357 357 357 355 354 351 349 348 347 346 345 343 345 344 343 342 341 341 341 340 339 340 339 339 340
332 332 333 334 335 337 339 341 341 342 346 349 350 351 352 353 355 358 359 361 362 362 360 359 358 358 358 356 355 355 354 354 354 355 355 355 356 355 355 355 356 356 358 359 358 356 355 358 358 356 356 356 358 360 359 359 360 361 360 359 357 356 357 356 355 353 354 349 348 347 346 344 342 344 343 342 342 340 341 340 339 340 339 340 340
331 331 332 333 334 337 340 342 343 345 348 351 352 352 352 352 353 358 360 361 362 363 361 359 359 358 358 357 356 355 354 354 354 354 354 355 355 356 356 356 356 356 357 358 358 357 354 355 358 358 358 357 358 359 359 359 359 360 360 359 358 356 356 357 356 354 353 351 349 348 348 345 342 342 343 344 343 342 341 341 340 340 340 340 339
328 331 332 334 337 340 343 345 346 345 345 350 352 352 352 352 352 355 360 362 363 363 362 360 359 358 357 357 356 355 355 355 354 354 354 354 354 354 356 356 357 357 356 357 358 358 357 354 356 359 359 359 358 359 360 359 359 359 359 359 357 356 356 357 357 356 354 353 351 350 349 347 344 342 342 344 344 343 343 342 342 341 341 340 339
325 331 333 336 337 340 342 343 344 344 345 349 353 353 353 352 352 354 358 361 363 363 362 361 360 358 357 357 356 356 356 356 355 354 353 353 353 353 354 356 357 356 355 356 357 358 358 357 355 356 359 360 360 359 359 359 358 358 359 358 357 356 355 355 356 357 356 354 353 352 351 349 347 344 342 343 346 345 344 343 343 342 342 341 339
334 331 334 336 335 337 339 340 342 344 346 351 353 353 353 353 354 354 356 359 362 362 361 361 359 358 357 356 356 356 356 356 356 354 353 353 353 352 353 355 356 355 356 355 357 358 357 357 357 357 357 359 361 360 359 359 358 357 358 358 358 357 356 355 354 356 356 355 354 353 352 352 351 347 341 341 342 343 346 343 343 343 342 341 340
335 334 335 335 336 336 336 338 340 343 346 352 353 353 353 354 354 354 355 357 360 360 360 360 359 358 357 356 356 356 356 356 356 355 354 353 353 353 352 353 356 356 355 355 355 356 357 357 357 358 358 358 359 361 352 339 344 357 357 358 359 358 357 355 354 353 355 356 355 354 354 347 342 339 337 336 336 337 339 344 344 343 342 341 340
338 338 338 339 341 341 340 340 343 345 347 350 352 353 354 355 355 355 355 356 358 359 360 359 359 359 358 357 356 356 356 355 355 356 355 353 352 353 352 352 354 356 356 355 355 354 356 357 357 358 358 358 359 359 340 333 335 340 354 357 357 358 358 357 355 354 353 355 355 355 354 350 343 339 341 334 334 334 335 337 339 340 341 343 340
337 340 343 344 346 347 345 343 345 348 348 349 350 352 354 354 355 356 356 357 357 358 358 358 359 359 359 358 357 356 356 355 354 355 355 354 352 352 352 352 352 355 357 356 355 354 354 357 358 358 359 359 359 344 334 332 333 333 340 358 358 358 358 357 357 355 355 355 355 355 355 355 353 351 349 344 336 332 333 334 335 337 337 337 339
329 335 340 346 348 350 350 350 349 350 351 350 350 351 352 354 354 356 357 356 356 356 357 357 358 359 359 359 358 357 356 355 354 354 355 355 353 351 351 351 351 354 357 356 356 355 353 355 357 357 357 359 359 342 333 330 331 331 332 344 358 358 358 358 357 356 356 355 356 356 355 355 355 343 347 349 346 342 331 330 332 334 335 334 334
329 332 331 331 336 347 350 351 351 351 352 352 353 350 351 353 354 355 355 355 355 355 356 357 357 358 360 360 359 357 357 356 356 355 355 355 353 351 351 352 353 353 354 356 357 356 355 353 355 357 357 359 360 343 331 328 328 328 330 337 357 357 357 357 358 357 357 356 356 356 355 355 355 354 351 350 349 346 343 339 337 338 340 340 333
334 333 337 341 335 335 345 346 346 346 345 346 348 350 351 350 350 351 353 353 354 354 355 356 356 357 360 360 359 358 357 357 357 356 355 355 354 353 352 352 352 352 352 355 356 356 356 355 354 355 358 358 360 339 328 326 325 325 328 331 355 357 356 356 357 358 357 356 356 357 356 356 356 355 354 350 350 348 346 343 340 339 340 342 343
341 333 336 335 339 345 344 343 347 346 344 344 345 346 349 349 349 349 350 351 352 352 353 357 356 357 359 361 360 359 358 358 358 357 356 355 355 354 353 353 353 353 353 354 355 357 357 356 356 354 354 357 360 335 328 325 323 324 326 341 352 355 354 354 354 355 357 357 356 356 356 355 356 355 346 333 340 350 347 344 342 340 340 341 342
343 343 341 342 346 343 346 351 345 345 344 343 344 346 346 347 347 346 348 349 351 351 351 357 357 357 360 362 361 360 359 359 359 358 357 356 356 356 356 355 353 352 352 353 353 355 357 357 357 356 354 353 357 340 325 323 322 322 325 346 351 353 354 354 354 354 355 356 356 356 355 355 355 355 344 331 330 337 349 346 344 342 341 340 341
338 339 345 346 345 345 348 344 340 344 342 342 345 345 344 343 344 345 345 347 348 350 351 356 358 358 360 362 362 361 360 360 360 359 359 359 358 359 358 358 354 353 352 353 353 354 355 357 357 357 356 355 354 342 322 321 319 319 328 348 351 352 353 354 354 354 355 355 355 347 355 354 353 354 338 329 328 334 347 347 346 344 342 340 341
340 338 341 347 346 352 352 349 348 349 350 343 345 344 345 343 344 344 344 344 345 348 351 353 359 360 361 363 364 363 362 361 360 361 361 360 360 360 360 361 358 356 354 354 354 354 354 355 357 357 347 353 356 346 318 318 317 318 329 349 352 352 352 353 354 353 354 355 355 351 344 344 348 346 332 328 325 331 347 349 348 346 343 342 343
342 343 344 349 354 352 349 351 357 357 359 355 349 342 346 345 345 343 342 342 344 346 351 353 360 361 362 363 365 364 363 362 361 362 363 362 362 362 362 362 361 359 357 355 355 355 355 355 356 357 358 357 357 358 339 314 315 315 320 348 353 352 352 353 354 353 353 353 354 355 348 329 328 330 327 324 322 321 344 349 349 347 345 344 347
339 348 356 350 351 352 351 349 354 360 360 360 358 357 355 348 352 346 341 343 345 346 352 354 359 362 362 363 365 364 364 363 364 364 364 364 364 362 362 362 361 361 359 356 356 355 356 356 357 358 358 358 359 358 351 312 312 313 316 326 352 353 354 354 354 353 353 353 353 353 354 337 324 323 322 320 319 318 325 347 350 349 348 347 344
341 356 353 348 349 349 351 351 355 358 359 360 359 358 358 356 359 353 348 347 348 348 353 355 358 361 361 363 364 365 366 366 365 365 365 364 365 364 363 362 362 361 358 356 355 354 355 356 357 358 358 359 358 347 360 317 313 311 314 316 343 353 353 355 354 354 354 354 354 354 354 343 327 321 320 319 317 317 318 336 347 333 332 332 345
343 347 350 351 350 351 352 353 357 357 358 357 357 358 358 358 355 359 364 363 355 350 354 355 358 360 360 361 364 365 366 368 367 367 365 364 365 364 363 362 361 360 359 357 356 355 354 353 353 355 358 360 360 355 339 334 312 312 311 313 322 339 336 353 355 354 355 355 356 356 355 341 328 321 317 316 317 317 317 327 324 325 326 327 334
347 347 347 350 349 350 354 357 357 358 357 360 358 358 359 359 355 360 363 366 366 353 355 355 356 359 360 360 363 366 367 367 367 367 366 365 364 364 362 362 361 360 359 358 357 356 354 353 352 353 359 360 362 362 343 329 323 312 312 311 314 320 329 348 356 357 357 358 357 357 352 333 324 319 316 316 317 317 327 319 316 319 323 326 338
345 345 346 347 348 348 353 352 352 353 356 357 363 361 360 358 361 367 362 360 367 360 356 355 356 358 359 360 363 366 366 366 367 368 365 364 364 363 361 361 361 360 359 358 357 357 355 354 353 352 354 356 361 365 364 336 321 314 312 311 313 315 319 324 348 356 356 358 343 333 330 326 323 320 318 317 317 316 315 317 318 319 322 335 338
344 344 345 347 349 349 351 350 350 352 353 359 358 358 355 356 361 364 363 361 365 362 358 356 357 360 361 362 363 365 365 365 366 367 367 366 365 363 362 361 361 360 360 359 357 357 356 356 355 355 354 356 358 358 354 337 326 318 315 311 311 311 313 315 318 328 318 315 314 315 317 318 319 323 331 333 334 335 320 317 317 319 330 335 338
342 344 348 348 348 348 348 349 347 350 352 354 356 356 357 359 360 362 363 364 364 364 363 360 358 360 361 363 363 363 364 364 365 366 367 367 366 365 362 359 361 361 360 358 358 357 356 356 356 356 356 356 356 352 344 341 334 329 328 325 318 321 315 314 324 330 326 333 334 333 336 326 326 324 325 321 323 325 329 329 329 328 329 333 337
344 345 347 348 348 346 346 346 346 348 350 352 353 354 356 357 361 363 364 364 367 363 363 363 362 361 360 361 362 372 367 363 361 359 361 365 366 365 362 360 360 360 358 358 357 356 355 356 356 357 356 355 337 330 329 333 331 333 337 332 330 330 329 329 330 332 333 336 338 329 331 340 343 343 344 340 337 335 332 332 334 334 333 333 333
344 343 347 346 346 346 345 346 346 348 349 349 349 351 354 356 357 361 362 361 363 366 363 362 363 362 361 362 363 365 362 344 330 321 315 312 314 322 351 334 324 325 351 361 358 357 356 354 346 346 352 339 331 326 323 307 312 306 314 337 337 336 335 335 320 310 332 336 335 336 337 339 340 341 342 344 346 346 344 340 337 337 337 337 336
345 345 346 346 346 344 344 343 344 345 346 346 347 348 350 355 356 359 360 361 360 360 361 359 361 359 359 359 360 361 350 339 333 326 321 318 311 301 306 329 325 319 310 318 332 347 339 328 322 318 326 335 325 320 303 297 297 297 297 296 295 293 296 303 304 308 324 330 332 334 335 336 338 340 341 342 343 344 344 344 344 334 338 338 338
343 343 342 343 343 346 344 343 343 344 343 344 343 346 348 352 353 355 358 358 359 357 356 355 356 355 354 357 355 355 347 341 338 334 330 326 322 317 302 299 306 308 307 308 307 308 311 317 324 318 312 308 306 300 298 299 298 298 296 296 295 294 294 295 302 320 327 327 328 330 333 334 336 338 339 341 341 342 342 343 344 344 344 341 336
Wind_Speed
13 14 13 18 17 14 12 14 14 15 15 16 16 15 13 15 13 14 13 13 11 8 9 8 9 6 5 7 7 7 7 5 4 6 5 6 8 9 9 7 8 6 6 5 5 5 4 5 5 4 4 4 4 4 3 3 3 2 2 3 2 1 1 2 1 4 3 2 3 2 2 1 0 3 7 6 7 6 6 6 6 6 6 6 6
13 12 11 14 16 16 13 14 14 17 15 17 17 16 13 15 13 13 12 13 13 10 10 9 8 8 8 7 5 6 7 6 5 5 6 4 8 9 8 8 8 7 6 6 5 5 4 5 6 6 5 5 5 3 3 3 2 3 3 2 0 2 2 2 1 3 1 3 2 0 3 3 2 0 3 5 6 7 7 7 6 6 7 6 5
14 14 15 11 18 18 13 14 15 17 17 17 17 16 15 14 12 12 12 13 13 10 10 10 7 7 7 5 7 5 4 5 4 4 6 6 8 9 9 8 8 7 7 6 6 5 5 4 5 6 6 5 5 4 4 4 4 3 4 4 2 1 3 2 3 3 2 2 2 3 0 0 2 1 2 4 4 5 6 8 7 7 8 6 6
17 18 18 13 17 17 14 15 15 15 16 14 16 16 14 14 13 12 13 13 13 11 10 9 8 8 5 5 5 6 6 4 4 4 4 5 9 9 8 8 9 8 7 7 6 6 6 5 4 5 6 4 6 5 5 4 4 3 4 3 4 3 3 3 4 4 2 5 2 3 3 4 0 3 2 1 5 5 4 5 8 8 8 7 6
18 18 18 15 16 19 17 15 15 15 17 16 17 16 13 17 15 15 13 13 13 13 12 10 8 9 6 5 4 5 5 6 4 5 6 4 7 8 9 9 9 8 8 8 6 7 6 6 5 6 6 5 4 5 5 5 5 5 5 5 4 3 1 3 2 3 5 4 4 2 2 1 3 3 1 1 3 4 4 7 5 8 9 9 7
19 20 20 18 14 16 15 15 16 15 17 17 17 17 15 15 15 15 12 12 14 14 14 12 10 10 10 8 9 7 9 9 10 10 9 7 8 7 9 9 9 8 8 8 8 6 7 7 6 6 6 5 6 6 5 4 5 6 6 6 6 4 2 2 3 1 4 3 3 4 5 3 3 2 4 3 1 1 4 5 6 6 8 9 7
16 17 16 16 14 14 17 17 18 17 18 16 16 16 16 15 14 15 14 12 13 14 15 12 11 10 12 11 11 9 10 9 9 7 8 8 5 8 8 9 9 9 9 9 8 8 7 7 7 6 6 6 5 6 5 6 6 6 6 5 6 6 4 3 3 5 2 1 3 2 1 1 2 3 2 2 4 2 4 3 5 5 6 8 8
18 17 18 18 18 16 18 19 18 18 17 17 16 15 16 16 15 14 13 13 13 14 15 13 12 12 12 10 10 9 9 10 9 8 6 8 7 8 7 8 9 9 8 8 8 8 7 7 7 6 6 6 6 6 6 5 5 5 6 7 5 4 5 4 4 5 7 3 1 2 0 0 2 3 3 4 5 5 2 2 3 6 6 6 8
20 19 19 19 20 18 15 18 17 15 16 17 17 17 17 16 16 14 14 13 14 16 16 15 12 13 13 11 10 8 7 7 7 8 7 8 10 6 8 9 9 9 8 8 9 8 8 8 8 7 6 6 6 6 6 6 7 6 6 5 5 5 4 4 5 5 5 5 3 1 1 1 1 1 1 2 2 3 3 3 4 1 0 2 5
20 21 21 21 20 19 15 16 16 15 15 15 15 14 15 14 15 16 14 13 13 16 16 16 14 12 12 12 12 10 8 6 8 9 9 7 10 9 8 8 9 8 8 8 9 9 8 8 8 8 7 7 6 6 6 5 5 7 8 7 6 5 3 5 6 5 4 4 5 5 3 0 1 2 0 1 3 3 4 3 4 7 5 3 3
18 18 19 19 19 19 15 15 18 16 13 16 15 16 15 15 16 17 16 13 14 16 17 17 15 13 13 13 13 12 11 9 8 9 9 7 9 10 8 9 9 9 8 7 8 9 8 8 8 8 6 6 7 7 7 7 5 6 6 6 6 5 4 4 4 4 3 4 4 5 6 5 4 3 3 2 2 1 2 0 1 7 8 5 6
19 17 17 16 15 16 15 15 17 17 14 16 16 16 16 15 16 18 16 15 14 15 16 16 15 14 13 14 14 12 12 11 10 11 12 12 10 11 8 9 9 8 8 9 7 9 9 8 8 8 7 6 7 7 7 6 6 6 6 6 6 5 4 4 4 4 4 3 5 5 5 4 3 3 4 3 4 4 5 3 2 1 0 1 3
19 17 16 16 17 19 18 16 16 17 15 17 19 18 17 17 19 19 18 17 16 16 17 17 16 15 14 14 13 12 12 12 11 10 11 11 10 8 9 9 9 8 9 10 9 10 9 8 9 8 8 8 6 7 6 7 6 6 6 7 7 6 6 7 5 5 4 5 5 4 5 4 4 4 4 3 3 4 5 3 2 2 3 2 3
19 18 18 18 17 19 19 17 17 17 16 17 19 18 17 17 19 20 20 19 16 16 18 17 17 16 15 14 14 12 12 12 11 11 11 10 10 9 10 9 10 11 11 11 11 10 9 9 9 9 8 8 7 7 7 6 6 7 7 8 8 7 6 7 6 5 5 4 5 5 5 5 5 3 4 3 3 4 4 5 3 1 1 4 2
17 18 19 19 19 20 19 19 18 18 17 16 16 17 16 17 18 20 20 19 18 17 17 19 17 17 15 14 14 12 12 12 12 11 11 11 10 11 9 9 9 10 11 10 10 10 9 9 9 9 8 8 8 7 8 7 6 6 7 8 7 7 7 7 7 6 6 6 4 6 6 5 6 4 4 5 4 5 6 5 5 2 1 1 2
18 19 19 20 19 18 17 17 17 17 18 15 16 16 16 18 19 20 21 20 20 19 17 18 18 16 16 16 16 14 12 11 10 9 9 11 11 11 11 9 9 8 8 9 10 10 9 10 10 10 8 8 8 8 8 7 6 6 7 8 8 7 7 9 7 7 6 6 5 5 6 6 6 5 5 6 6 6 5 5 6 5 5 2 2
18 19 18 19 18 18 18 18 17 18 17 18 18 18 18 17 18 19 19 17 19 19 18 18 18 17 17 17 16 15 15 14 13 13 12 11 11 11 10 10 8 8 7 9 10 10 10 9 10 10 10 8 8 8 8 8 7 6 7 8 8 8 8 9 8 8 6 7 6 5 6 6 6 3 3 5 5 4 6 6 6 7 7 5 4
20 20 18 20 20 21 19 18 20 21 23 21 19 16 15 15 18 19 18 19 19 18 18 16 17 17 17 17 16 16 15 15 14 14 12 10 10 10 9 9 10 9 9 8 9 10 9 10 10 10 10 10 9 9 9 8 8 7 7 8 8 8 8 7 8 8 8 6 7 6 5 6 5 5 5 4 5 5 6 6 6 6 7 7 5
17 18 17 17 18 19 19 20 21 22 22 20 17 16 15 15 17 19 21 21 21 18 17 15 16 13 13 16 17 16 15 15 14 13 12 12 12 11 12 12 10 9 9 9 9 9 10 10 10 10 10 11 9 9 9 8 8 8 7 7 7 7 8 8 8 8 8 7 7 8 6 6 5 5 5 4 5 5 5 6 5 6 6 7 7
18 18 18 18 19 20 20 20 21 20 19 18 19 17 19 19 19 19 19 18 17 17 16 15 15 14 14 14 16 16 17 16 15 14 13 13 13 12 12 11 12 10 10 11 11 10 10 11 10 11 11 11 10 10 10 9 9 9 8 8 8 7 8 9 8 8 7 7 7 8 8 7 6 5 5 5 4 5 5 6 6 6 5 6 7
18 18 18 19 19 20 20 20 19 19 18 18 18 20 19 18 19 20 21 21 20 20 18 17 16 16 16 16 17 16 16 14 14 14 14 14 13 12 12 11 10 11 10 10 11 12 12 11 12 11 12 11 11 11 10 10 9 9 9 9 8 9 8 7 8 9 8 8 8 7 7 8 6 6 6 6 4 5 6 6 6 7 6 5 7
21 20 19 19 18 19 19 16 15 17 19 21 20 18 18 19 19 19 19 19 20 19 18 17 15 15 17 17 17 15 15 14 15 15 15 14 13 12 12 10 11 12 12 11 11 11 12 12 12 12 12 12 12 11 10 10 10 10 10 8 9 10 10 8 8 9 9 7 8 9 7 7 8 8 7 7 6 5 6 6 7 7 7 7 7
21 20 19 19 18 18 18 18 18 18 19 21 19 19 20 21 20 18 19 20 20 19 18 16 16 16 17 16 16 15 15 15 16 14 15 15 14 13 11 12 12 11 11 12 12 11 11 12 12 12 12 12 12 12 11 11 12 12 12 11 10 11 12 11 10 10 10 9 8 9 10 8 6 8 8 9 7 6 6 7 8 6 7 7 7
19 19 18 17 17 17 16 17 17 17 16 18 19 19 18 17 18 17 20 21 20 18 18 17 16 17 17 16 16 15 17 17 17 15 16 16 14 13 12 12 12 11 12 12 12 12 10 12 13 12 12 12 13 13 13 13 13 13 12 12 11 11 12 12 12 11 11 11 11 10 11 11 8 9 9 9 8 7 7 7 7 7 8 8 7
20 19 18 16 16 17 17 18 17 16 16 18 18 17 17 17 17 18 18 18 18 17 18 18 18 19 18 17 18 17 17 18 17 15 17 16 15 14 12 13 12 12 13 12 11 12 11 11 12 13 13 13 13 13 14 13 13 13 13 13 12 12 12 13 13 13 11 12 12 12 12 11 10 10 9 9 10 11 9 8 8 8 8 8 6
22 19 19 20 19 17 17 17 16 16 16 16 17 17 17 17 18 16 16 17 18 16 18 18 18 19 18 19 19 18 19 19 19 18 18 17 15 14 14 13 14 14 13 13 13 12 12 13 13 13 14 14 13 13 14 15 14 13 13 13 13 13 12 12 12 13 13 12 12 13 12 11 12 12 11 11 10 12 11 10 10 9 9 8 9
19 20 19 17 15 18 19 19 17 16 15 14 16 17 16 16 17 17 16 17 17 17 18 18 19 19 18 19 19 19 18 18 18 18 16 15 15 15 15 15 14 15 14 13 14 14 13 14 14 13 14 14 14 14 14 14 13 13 13 14 13 13 13 11 12 13 13 13 13 13 13 13 13 14 13 12 12 12 11 12 12 11 9 9 9
14 18 19 19 19 19 19 18 17 16 15 13 15 17 17 16 17 17 17 17 16 17 18 18 18 19 19 19 18 18 18 18 17 16 16 16 16 15 15 14 14 15 15 15 14 15 14 13 14 14 14 13 13 14 13 13 13 13 13 14 14 13 13 12 12 12 13 13 14 14 14 14 14 14 14 13 12 12 11 12 11 10 9 10 11
10 17 18 19 17 16 18 18 17 17 16 16 17 17 16 16 16 17 17 18 17 17 18 18 17 18 19 18 17 16 16 16 16 16 16 16 16 15 14 14 14 15 14 15 14 14 14 14 14 14 14 13 13 13 12 13 13 14 13 14 14 14 13 13 12 12 13 14 14 14 14 14 15 17 19 17 16 14 12 12 12 11 11 11 11
11 13 14 15 16 15 14 14 14 17 16 16 16 16 17 17 17 17 17 16 16 17 18 18 18 18 17 16 16 15 15 15 15 16 16 16 15 15 15 15 15 15 15 14 13 13 14 15 14 14 14 13 13 11 14 20 18 14 14 12 12 13 13 13 13 13 13 14 15 14 14 19 19 20 20 21 20 20 20 16 13 12 13 12 12
10 9 11 11 11 10 9 10 12 13 15 14 14 15 15 16 15 16 17 16 16 16 17 18 17 16 16 16 15 15 15 16 16 15 15 16 16 14 14 15 14 14 15 14 13 14 14 14 15 15 15 14 12 12 18 18 20 21 15 13 13 13 13 13 13 13 13 14 14 14 13 15 17 17 18 21 21 22 21 21 19 18 16 15 13
11 12 12 10 10 11 12 14 14 14 15 13 12 13 14 16 15 16 16 16 15 15 17 17 16 15 16 16 15 15 16 16 15 16 15 15 14 14 14 14 13 14 13 12 14 16 15 14 14 15 15 14 13 16 19 19 20 21 19 15 12 12 12 13 13 14 13 13 13 13 12 11 12 15 15 16 20 22 22 21 21 20 20 21 18
11 11 11 13 14 12 14 14 12 12 12 13 12 12 14 14 14 14 13 15 16 15 14 16 16 15 16 16 15 16 16 16 16 16 14 14 14 14 13 13 15 14 12 14 15 15 15 13 14 16 16 15 14 18 19 21 21 21 22 19 12 13 13 13 13 14 14 13 12 12 12 12 11 18 17 15 14 16 20 23 23 23 22 22 21
9 9 8 7 6 8 11 12 12 12 12 9 8 10 9 10 12 12 13 14 15 14 13 15 15 15 16 16 16 16 16 16 14 14 14 14 14 15 14 13 12 12 13 14 14 16 15 14 14 14 15 15 15 17 21 21 21 22 22 20 15 14 13 13 14 15 14 14 14 13 12 12 13 13 13 15 14 15 15 16 16 16 16 19 21
4 5 5 2 5 6 5 3 4 5 5 5 6 6 7 8 8 9 11 12 13 14 11 13 15 14 15 15 16 16 16 15 15 14 14 14 14 14 14 12 12 13 14 14 15 15 15 15 14 13 13 15 14 19 21 22 22 23 23 20 16 14 12 13 13 14 15 14 13 13 13 14 13 14 12 15 16 15 15 15 16 17 18 17 17
10 6 3 1 5 8 6 7 5 7 7 7 7 7 7 7 7 8 7 9 10 12 11 11 14 15 15 15 16 16 16 15 14 14 14 15 14 14 15 13 12 12 12 12 11 12 14 15 15 15 13 14 14 19 21 23 23 23 23 16 15 15 14 13 14 14 13 13 13 13 13 14 15 15 16 19 19 15 14 16 16 17 17 16 16
10 10 10 9 9 4 5 4 3 2 4 7 8 8 9 7 7 7 6 7 7 10 11 11 13 14 14 15 15 16 15 15 15 15 15 15 14 14 13 11 12 12 12 13 13 14 13 14 15 15 16 14 13 16 20 22 23 23 17 13 14 14 14 14 14 13 13 13 13 14 15 14 15 15 17 19 20 19 15 16 16 17 16 15 17
10 8 9 8 6 5 4 5 5 6 5 3 1 5 5 7 7 8 8 7 8 9 9 9 11 13 13 14 14 15 15 15 15 15 15 13 13 12 12 11 13 13 13 14 13 12 12 12 14 15 16 15 14 12 18 20 21 21 19 15 13 13 14 14 14 12 10 11 14 19 17 15 15 15 17 19 20 18 16 17 16 17 16 17 19
8 7 7 7 6 4 4 4 7 7 4 2 2 1 3 5 7 9 9 9 9 9 9 9 9 11 12 12 13 14 15 15 15 15 14 14 13 12 11 10 12 12 12 10 9 10 11 11 12 13 14 15 12 10 15 18 19 21 19 13 13 13 14 14 12 12 12 11 12 14 19 18 16 16 18 18 19 18 16 17 16 15 17 19 20
10 10 7 5 8 10 10 7 7 5 5 5 3 2 2 4 6 6 9 11 12 11 9 7 8 10 11 12 12 14 14 14 14 13 12 12 10 10 11 11 10 10 10 10 9 9 11 11 10 11 11 11 12 11 10 17 18 19 21 15 12 12 14 14 12 13 12 13 13 11 12 17 20 19 18 19 20 21 18 16 14 15 18 23 13
11 11 11 10 10 9 8 9 8 9 10 9 8 5 2 1 4 5 7 11 12 9 8 8 8 9 10 12 11 13 14 13 12 12 12 11 10 11 10 10 11 10 9 9 11 9 9 9 9 10 10 10 9 9 9 17 17 20 22 19 12 14 13 11 12 12 12 12 11 11 10 13 17 19 19 19 20 22 22 18 17 18 20 17 10
9 10 11 9 9 8 7 7 6 8 8 7 7 7 5 4 0 4 7 7 3 6 9 9 10 10 11 11 11 11 12 11 11 11 11 10 9 10 10 10 9 9 10 11 10 9 9 8 7 7 8 9 9 12 7 14 19 21 23 26 15 13 13 11 12 12 12 11 11 10 10 12 16 18 20 21 21 20 23 17 21 24 22 18 15
10 11 11 10 8 7 6 6 7 8 7 5 6 6 6 5 4 3 3 3 6 8 9 10 10 10 11 11 10 12 11 9 9 11 11 11 9 10 9 8 9 9 9 10 10 9 9 8 6 6 6 8 8 9 13 11 17 21 23 24 24 17 17 14 13 13 13 12 10 11 11 15 18 19 19 20 21 23 18 18 24 22 21 19 15
11 10 10 9 8 9 4 6 8 5 4 5 4 5 5 5 5 6 3 4 1 6 8 10 10 10 11 10 10 11 11 10 10 10 10 10 9 9 8 8 9 9 9 9 9 8 8 9 9 7 5 5 6 7 11 16 16 22 22 24 25 24 19 14 14 13 12 11 10 10 12 18 19 19 19 19 20 20 17 20 20 22 22 18 13
9 10 9 9 9 9 4 7 8 9 5 3 5 5 4 4 6 5 4 4 2 4 5 7 8 8 10 9 9 10 10 9 9 10 10 9 8 8 8 7 8 8 8 9 8 7 8 9 8 8 6 4 4 6 5 11 18 20 22 22 24 25 23 21 15 14 13 10 10 14 17 18 18 18 20 20 18 19 21 20 22 23 21 14 14
7 6 7 7 10 8 5 7 7 8 10 6 8 6 7 7 5 5 5 5 2 3 5 6 6 7 8 9 9 9 9 9 9 9 9 8 9 9 9 7 8 8 9 9 7 7 8 8 7 7 7 6 5 3 3 4 3 3 4 7 9 10 13 13 12 11 13 14 14 13 12 11 11 10 8 7 8 10 12 17 19 18 13 12 13
6 5 5 7 7 8 7 7 8 8 8 8 9 8 8 9 8 8 4 4 3 3 4 5 6 7 7 8 9 8 7 7 7 7 7 7 8 8 8 8 8 9 8 7 7 7 7 7 7 7 6 6 3 4 5 4 4 4 3 5 6 7 7 5 6 8 10 11 12 11 6 5 5 8 9 7 7 9 8 8 8 9 11 12 13
5 4 6 5 5 5 6 7 7 7 7 8 8 8 9 9 9 9 7 4 4 3 4 5 6 6 7 7 8 9 9 6 4 4 4 3 6 8 8 8 9 8 7 7 7 7 7 7 7 7 7 5 6 4 4 4 3 2 4 4 4 4 5 6 6 7 7 9 9 10 10 9 8 8 8 7 8 7 7 8 8 8 9 11 15
6 4 3 4 4 4 4 5 5 4 5 5 7 8 9 9 8 8 8 5 3 3 3 4 5 6 6 6 7 8 7 9 9 9 9 7 5 5 2 5 5 2 4 7 7 7 6 3 4 2 4 6 4 4 2 1 1 1 3 2 2 1 1 1 3 6 3 3 4 5 7 8 9 10 11 12 12 11 10 10 10 10 9 9 10
5 3 3 4 3 3 3 3 3 3 3 4 5 6 7 7 8 8 8 5 1 3 3 4 2 2 4 5 6 7 9 9 9 9 9 9 12 14 11 5 3 8 5 4 7 4 7 9 10 5 3 6 6 4 4 6 5 5 7 8 6 6 4 2 1 2 2 1 2 3 4 5 6 6 7 9 10 9 10 10 9 9 9 10 12
4 3 3 3 2 1 0 1 1 1 2 3 4 4 6 6 7 7 6 5 5 6 5 5 5 5 0 5 5 7 9 8 9 10 10 10 9 12 16 16 11 8 10 18 19 17 13 12 15 10 9 15 13 10 9 7 8 8 9 9 9 8 6 4 2 3 1 2 2 3 4 4 5 5 6 8 8 9 9 10 10 10 9 11 12
Wind_Direction
181 182 180 171 172 178 166 166 158 161 161 161 167 167 165 167 164 164 163 162 170 166 167 162 164 162 165 174 164 176 182 193 184 197 179 172 159 164 165 166 166 165 170 166 169 189 175 167 167 164 163 167 178 187 176 139 131 116 110 97 124 121 289 319 330 109 95 22 7 358 336 356 52 105 146 146 151 162 157 158 161 152 157 152 154
174 183 189 173 170 175 166 167 159 163 165 163 170 171 165 167 163 164 161 164 172 173 168 168 171 174 174 178 161 167 173 188 201 198 188 156 156 160 163 166 163 167 171 166 172 182 193 173 168 176 171 175 188 188 158 132 134 142 132 85 84 155 230 248 222 91 44 142 133 331 346 342 337 75 149 156 166 158 162 161 156 159 158 149 153
176 184 194 186 172 174 167 170 167 167 168 164 170 169 167 169 165 164 165 165 170 170 168 169 166 170 170 174 169 166 171 185 188 189 179 163 162 163 163 164 164 168 169 170 173 184 192 186 166 173 175 167 173 178 142 156 171 158 133 139 145 202 220 239 226 137 174 132 116 86 318 121 321 3 22 153 158 171 159 149 158 167 161 154 159
179 182 192 195 175 173 172 172 169 163 170 162 168 169 171 172 170 167 169 166 169 169 171 164 163 166 162 171 164 166 175 182 192 193 183 149 164 167 165 164 166 170 170 173 176 183 189 189 173 170 173 163 168 167 170 176 162 145 139 154 147 180 213 246 179 151 127 125 127 176 200 129 62 290 220 274 177 184 158 133 157 169 152 157 150
178 181 188 193 178 177 174 173 168 165 172 171 170 170 174 173 173 171 170 168 170 170 167 165 152 162 170 170 168 151 161 183 184 200 207 173 161 168 174 169 168 168 173 177 176 184 187 188 180 176 173 179 165 166 175 180 170 167 168 165 181 170 215 220 229 156 163 164 142 97 43 36 215 234 130 345 197 173 168 150 138 136 151 163 161
176 181 187 190 179 174 170 171 174 168 174 175 174 173 166 171 170 171 170 168 171 170 169 167 167 166 172 174 187 176 177 183 192 189 193 195 178 173 168 173 168 170 174 178 183 182 189 186 181 172 176 180 177 175 180 161 166 163 183 177 189 190 191 188 181 174 163 154 179 167 165 175 196 228 95 150 320 234 177 152 145 139 138 146 154
183 182 182 184 185 175 176 176 177 174 176 172 173 174 168 168 169 170 171 171 171 170 170 170 170 173 179 185 190 186 178 191 190 182 180 193 167 176 172 174 173 172 180 182 182 187 187 184 180 183 178 183 180 165 175 176 178 175 176 181 190 191 184 175 167 162 131 142 189 176 158 203 161 115 190 119 114 10 155 143 143 149 147 138 152
177 180 182 184 187 185 180 180 181 180 169 169 172 172 173 170 171 170 171 171 173 171 173 175 174 175 178 184 191 193 183 185 182 182 173 177 183 177 171 179 178 181 180 183 185 185 185 183 183 187 180 185 177 177 181 181 174 177 173 191 185 192 170 164 178 186 159 220 219 210 80 197 183 115 135 155 158 141 189 335 145 164 166 164 160
176 178 181 182 186 190 182 182 181 171 166 172 172 174 176 172 175 172 172 171 173 173 175 179 177 176 178 181 188 198 181 179 177 179 174 176 185 179 178 178 180 185 185 184 187 186 187 184 184 187 183 182 180 183 188 180 181 177 176 189 189 190 176 170 156 192 159 188 162 112 96 323 338 81 109 98 127 125 196 160 183 215 188 172 169
177 180 180 183 185 188 183 180 174 178 173 171 170 169 173 171 175 177 176 176 173 175 176 178 179 176 179 185 185 189 185 178 173 178 184 175 183 189 178 182 182 185 190 187 186 188 186 185 185 187 188 184 178 187 190 194 183 179 179 184 186 172 179 150 170 180 177 188 164 157 153 295 48 32 23 64 70 118 169 203 167 168 194 236 194
178 180 184 184 183 183 180 175 179 177 169 166 169 170 171 171 174 180 182 180 176 177 176 180 180 181 184 185 186 184 185 181 172 181 182 178 185 191 182 184 184 186 189 192 187 188 186 184 187 189 189 182 180 183 189 193 184 175 175 167 172 172 182 172 160 163 169 163 160 150 174 166 173 161 210 223 137 138 105 280 146 181 186 178 207
178 178 181 178 175 181 181 179 178 177 169 168 170 168 172 174 176 180 181 183 181 179 179 181 183 186 186 186 187 187 183 187 184 183 185 190 186 191 183 179 186 187 188 192 190 189 186 186 185 185 190 188 185 184 185 188 181 175 168 165 168 170 174 188 157 171 170 167 159 157 179 190 163 148 189 165 157 184 146 197 176 264 330 238 169
175 178 175 173 176 180 183 180 178 179 176 173 172 172 174 176 177 179 184 184 184 182 182 183 185 187 188 187 190 187 186 188 190 187 188 191 191 187 182 181 181 184 192 191 195 188 185 183 184 186 190 194 191 183 184 185 182 174 172 170 169 172 179 186 176 190 175 172 178 176 175 203 207 198 173 167 185 149 152 158 239 157 180 210 153
175 175 175 176 177 180 181 177 179 182 181 177 176 175 174 178 178 182 185 183 184 185 186 185 188 189 188 188 188 186 189 189 192 191 190 191 191 191 190 183 180 187 188 192 193 187 185 188 186 186 187 189 188 188 182 184 181 180 173 172 175 177 173 181 188 182 188 195 160 172 193 201 227 200 204 161 161 143 150 163 197 357 113 187 172
171 174 176 178 180 178 178 179 181 183 183 179 178 177 175 178 179 184 185 185 184 188 188 190 190 190 190 190 189 189 189 191 195 194 189 189 190 192 191 188 184 187 189 190 187 188 185 185 186 185 185 188 187 185 188 187 184 176 175 177 173 174 171 179 187 175 187 205 175 174 194 199 215 220 211 209 183 192 167 169 140 158 10 187 188
174 175 176 177 179 178 177 179 180 182 182 182 182 178 178 180 181 184 186 185 186 188 192 192 192 190 189 190 191 191 192 194 197 197 194 190 189 190 192 190 190 181 185 181 188 186 183 185 186 189 185 183 187 185 184 187 189 174 175 175 178 178 168 180 188 184 190 200 195 179 176 206 211 215 208 210 191 181 183 157 148 146 139 198 229
174 175 176 173 175 179 181 179 179 181 184 188 186 183 181 176 179 182 186 187 190 193 193 195 194 191 192 191 190 191 193 194 196 196 195 192 190 192 192 193 187 183 179 183 185 186 185 182 186 189 188 185 184 186 183 186 187 180 173 179 180 182 172 182 183 187 194 191 202 189 190 208 223 195 215 229 216 179 176 182 171 169 161 144 185
173 175 172 172 176 181 182 183 182 184 188 189 186 183 178 178 179 181 184 188 193 194 196 196 197 197 195 193 192 193 194 197 197 197 196 190 190 191 190 191 194 189 186 183 181 186 187 185 185 189 190 188 187 187 185 183 181 186 179 182 184 177 178 180 186 186 193 186 197 204 196 213 222 217 214 212 227 198 175 178 182 179 161 168 174
163 168 170 174 180 182 182 185 186 189 188 186 182 177 180 179 180 182 187 191 191 193 197 198 198 198 197 195 194 195 197 199 199 197 194 196 193 190 191 193 191 187 186 187 186 186 186 191 187 188 188 191 188 187 186 183 180 186 186 183 188 177 181 184 190 185 193 185 190 202 205 218 223 222 221 201 216 185 177 155 161 166 175 168 171
167 171 174 178 180 180 183 183 186 185 185 184 183 183 182 181 179 185 188 189 190 194 195 198 200 200 201 200 200 199 197 197 197 193 195 199 199 193 191 188 192 189 188 186 190 191 188 189 190 189 189 190 191 189 186 186 184 189 187 190 191 185 181 189 191 191 190 193 187 196 204 213 222 216 230 225 209 190 180 168 159 163 172 169 163
173 172 175 180 180 182 185 184 182 180 180 181 185 188 186 180 182 183 185 188 190 193 193 199 197 201 200 200 202 202 202 199 197 195 197 200 200 197 194 192 185 193 187 186 190 193 192 190 189 190 190 191 191 191 188 186 188 192 192 192 191 193 188 190 190 195 194 190 195 194 201 208 206 213 218 229 214 204 184 182 177 168 181 181 169
176 175 175 178 179 183 185 182 180 179 177 182 185 184 182 186 186 185 186 188 191 193 195 196 198 201 202 202 203 202 201 198 197 196 199 200 200 198 196 190 189 193 191 192 190 192 192 191 189 191 191 191 191 192 190 187 191 192 195 192 193 192 197 191 189 197 198 191 192 199 204 202 203 208 212 216 210 204 195 189 191 184 192 197 191
176 174 176 176 176 180 179 178 180 180 179 181 180 182 186 187 184 185 186 190 190 193 194 194 196 200 204 204 202 202 200 200 200 199 202 201 199 199 194 193 195 192 192 196 196 192 191 191 193 191 191 191 191 192 191 190 194 194 194 196 194 192 195 195 192 198 198 193 190 199 206 201 196 204 209 212 206 204 201 199 201 194 198 203 198
174 175 177 177 177 173 171 178 182 183 183 183 184 184 185 184 185 184 189 189 189 191 192 193 196 200 202 201 202 202 201 201 201 201 202 202 199 198 194 196 196 194 193 197 196 196 189 191 195 194 193 192 191 193 194 194 195 195 195 196 196 195 196 197 197 196 195 195 198 197 205 202 197 200 205 207 208 204 198 205 205 207 203 206 203
175 176 176 175 171 169 176 181 183 182 184 186 187 185 184 184 184 187 190 190 191 190 192 194 195 198 199 200 201 201 201 202 203 203 204 202 199 197 195 197 195 197 197 195 196 195 194 191 195 197 197 197 195 194 195 197 198 197 196 196 198 198 198 199 199 198 194 195 199 202 204 200 199 202 205 205 205 208 208 197 206 208 207 207 205
172 175 173 173 173 174 176 181 181 182 182 180 183 186 184 184 187 185 185 189 192 191 194 196 197 198 199 200 201 199 200 201 202 203 203 202 199 198 195 196 196 198 197 196 195 195 196 198 198 198 198 200 198 197 198 199 198 196 197 199 200 201 201 200 202 202 200 197 199 204 203 200 201 203 207 207 205 207 207 209 208 208 208 202 207
168 173 172 168 167 168 175 178 179 180 179 177 182 185 186 185 185 186 185 186 189 192 194 196 197 199 200 201 200 200 200 201 201 202 201 200 201 199 196 196 195 198 197 197 197 197 198 199 201 199 200 200 200 201 201 200 199 197 197 199 201 203 204 202 202 203 204 204 204 204 204 201 203 206 207 206 206 208 207 212 210 209 204 201 206
158 169 166 169 171 169 172 175 177 178 179 181 183 184 186 185 186 188 187 186 188 191 193 196 197 199 201 201 201 200 201 201 200 200 200 201 200 200 199 195 193 198 200 200 198 198 198 199 202 203 203 201 201 203 202 201 200 199 198 201 202 202 203 205 204 205 205 207 207 207 206 204 205 205 207 208 204 207 208 214 212 207 202 202 207
138 163 164 168 167 170 172 174 176 176 178 181 183 185 186 187 188 188 190 190 187 189 192 195 196 199 201 200 199 200 201 200 199 198 200 201 200 199 197 195 194 198 200 202 201 197 197 200 203 204 205 204 204 205 203 200 200 202 201 202 202 203 203 206 207 207 208 209 210 211 211 210 208 207 206 206 207 205 204 211 212 206 206 205 208
144 154 163 166 170 170 173 173 175 178 182 181 183 183 185 187 189 189 191 191 186 190 191 194 197 198 197 197 197 198 198 198 198 199 201 201 200 198 198 198 197 198 199 200 201 198 200 200 201 204 205 207 209 207 204 199 198 200 202 203 202 205 205 206 208 210 211 211 212 212 213 211 209 208 207 209 210 209 209 209 207 203 207 208 209
129 130 148 156 155 153 155 167 178 182 185 183 182 183 185 188 189 190 192 192 189 190 192 195 197 193 192 193 194 197 196 198 198 199 199 200 201 198 198 199 198 196 197 197 198 202 204 200 201 202 205 208 210 209 201 198 199 200 201 204 203 205 206 208 209 210 213 213 214 213 216 212 211 211 210 209 211 212 213 215 214 210 208 205 205
132 138 142 150 150 155 166 176 185 187 186 186 180 180 184 190 190 192 192 192 194 193 193 194 194 189 189 190 193 194 197 198 197 199 198 200 200 199 199 198 198 197 197 193 198 204 205 200 201 205 207 208 210 208 198 197 198 200 201 205 207 207 207 210 211 212 215 216 216 215 216 216 212 212 211 212 214 215 215 216 217 216 216 216 212
136 142 146 153 163 169 172 176 182 186 187 191 181 177 185 190 190 192 187 193 199 196 193 194 193 188 187 188 189 192 196 197 199 199 198 198 199 201 201 198 200 198 191 195 201 202 205 203 201 204 208 208 212 204 197 196 197 199 202 205 210 210 209 211 212 214 216 214 214 216 217 217 219 211 211 211 211 218 219 218 218 220 221 217 219
111 115 125 137 145 162 170 174 179 184 184 178 177 181 184 184 186 187 188 193 198 199 191 193 193 191 188 186 188 191 193 196 196 198 198 197 198 202 202 200 199 195 196 200 201 203 205 206 204 204 208 210 211 203 196 196 197 198 202 203 214 211 213 214 214 216 217 216 213 214 216 218 219 213 210 211 211 212 213 219 223 224 224 225 222
90 123 113 121 162 158 138 122 148 159 154 154 173 172 173 181 173 180 192 191 194 199 193 189 193 192 187 187 188 188 191 192 193 194 195 198 199 203 203 202 198 198 199 201 201 204 207 207 208 207 207 212 214 202 194 196 196 197 201 201 214 216 217 219 220 219 220 219 217 216 218 221 219 220 212 207 210 210 211 215 218 221 223 223 220
51 51 19 138 167 154 158 173 178 162 177 177 188 183 167 184 185 176 184 192 191 196 192 185 191 192 190 187 186 188 189 189 190 191 194 198 198 200 202 201 202 204 206 206 208 207 207 209 211 211 211 214 216 200 195 195 196 198 197 201 212 218 220 221 223 223 221 221 220 218 219 222 221 221 217 204 208 208 212 217 219 223 225 226 227
48 53 60 46 23 50 124 116 98 181 192 196 191 181 184 180 184 191 178 185 189 196 195 185 190 190 189 186 187 187 188 188 188 191 196 197 197 200 203 199 205 207 205 206 208 208 209 209 210 212 216 219 217 204 194 195 195 195 189 204 210 218 224 227 227 225 225 223 222 220 220 223 222 223 217 205 207 202 213 217 221 223 225 226 233
45 39 43 40 33 19 25 73 90 95 100 86 140 189 186 187 191 192 186 193 192 205 197 183 187 188 187 186 186 186 186 188 189 193 194 196 197 199 200 196 204 207 210 210 209 213 214 212 211 214 215 220 222 203 192 195 193 188 189 200 208 215 225 228 232 231 229 229 228 224 224 226 226 226 218 211 205 199 214 218 220 224 225 229 234
38 43 35 21 14 15 350 27 49 38 25 103 112 122 191 206 205 194 193 197 207 207 194 190 186 182 183 182 185 186 187 188 191 192 191 193 196 197 196 194 204 209 215 215 211 214 217 218 218 219 219 222 228 212 183 190 189 187 191 203 203 213 222 227 228 234 232 233 233 227 225 226 228 228 220 215 207 199 216 220 221 223 229 231 232
13 8 8 20 29 28 20 26 40 16 4 12 56 120 179 207 219 218 197 202 210 208 194 182 173 179 181 182 183 185 187 189 190 189 191 192 189 190 193 195 201 205 212 215 214 215 217 219 218 219 219 218 222 224 184 180 182 189 193 199 206 210 222 223 224 230 233 234 235 236 228 225 229 231 225 217 211 203 215 223 222 226 231 236 226
12 19 24 33 23 19 12 7 22 24 17 3 358 19 37 224 223 203 222 216 212 193 172 176 173 173 180 182 181 183 185 188 186 186 186 187 187 191 189 194 199 202 208 212 219 220 220 221 216 216 222 218 217 219 191 168 179 183 193 201 212 215 218 217 223 229 233 235 234 232 238 223 220 225 228 227 218 211 215 222 223 229 229 236 217
5 32 31 24 17 2 3 15 36 20 8 360 3 5 353 357 340 240 240 246 239 182 175 170 172 176 178 180 181 180 181 182 181 178 182 186 186 185 188 192 194 199 205 211 216 221 225 224 216 213 215 217 213 204 195 174 177 186 191 199 207 216 210 213 222 231 233 238 237 235 236 231 219 219 221 225 225 221 220 222 231 232 235 233 225
20 30 20 18 7 352 13 5 11 9 356 348 353 343 335 337 328 276 281 268 196 183 180 175 173 173 177 177 176 173 174 177 177 177 178 182 180 184 187 187 191 197 203 208 213 215 222 228 225 222 213 209 208 204 197 176 185 187 194 198 206 209 205 208 217 227 229 236 233 233 235 228 223 223 220 222 224 224 223 227 235 240 239 234 228
38 22 18 2 7 338 1 35 19 348 340 337 337 319 311 320 313 310 327 356 195 189 177 173 175 175 173 173 171 170 172 173 172 172 177 177 181 183 184 188 188 195 200 208 211 210 217 223 228 231 225 213 206 202 201 186 187 195 196 197 204 213 206 207 212 225 227 231 235 234 234 226 224 226 226 224 226 225 227 231 234 241 244 240 232
28 18 3 2 360 339 48 45 20 358 328 334 11 19 4 6 327 324 350 10 357 158 167 174 172 170 168 167 163 165 168 168 166 169 173 177 182 179 188 186 184 192 197 203 203 198 208 215 220 222 217 215 187 195 200 194 193 198 199 200 205 209 215 212 216 225 228 229 249 244 234 229 225 227 229 227 230 234 234 233 232 233 235 235 234
20 7 360 5 1 350 39 45 26 16 9 13 14 18 15 330 313 338 1 358 26 136 155 164 159 157 161 157 158 159 163 164 161 167 169 175 178 184 188 183 186 195 197 199 195 192 200 201 205 209 209 207 203 187 104 60 71 109 199 234 238 252 255 261 276 289 303 310 308 305 294 289 284 275 278 275 261 254 252 248 248 247 243 240 239
350 347 10 15 17 11 21 32 27 18 14 13 13 9 2 347 344 336 350 14 32 105 130 140 147 150 149 153 156 159 158 160 156 156 162 173 182 186 186 183 189 196 198 195 186 182 187 186 195 197 188 191 165 72 74 91 103 134 149 170 185 225 232 250 266 265 277 282 281 281 300 322 278 266 260 246 253 267 274 262 242 237 238 245 245
338 5 357 21 31 32 26 29 25 16 14 10 8 3 355 350 349 350 343 12 12 57 108 131 139 145 147 148 154 152 149 143 112 109 132 167 185 182 181 185 188 192 186 187 180 179 175 182 190 186 190 162 85 71 56 76 63 87 134 147 173 192 194 201 223 238 241 259 268 280 292 289 285 288 275 263 258 251 246 254 249 239 238 239 246
343 337 350 46 32 32 21 29 18 5 20 17 4 354 347 346 343 339 337 347 358 25 71 97 119 128 143 140 135 147 135 110 98 84 71 56 24 338 38 71 13 337 192 174 175 173 170 122 100 92 141 108 108 106 162 2 292 352 31 98 130 129 154 143 51 22 311 270 274 279 271 274 268 264 270 268 269 270 264 252 252 256 252 249 252
305 324 49 38 41 32 25 22 14 16 26 21 11 354 342 343 349 345 345 331 331 29 44 39 34 97 141 137 131 134 113 120 115 112 101 75 55 53 30 55 57 358 358 102 128 136 136 120 97 35 19 136 143 153 124 129 128 104 81 75 83 83 85 71 337 323 116 9 328 307 301 301 302 307 294 288 288 292 293 288 281 268 259 255 252
326 42 11 69 23 19 349 44 26 42 44 31 18 350 338 347 357 351 352 15 52 71 61 50 53 36 51 157 154 128 122 121 121 115 108 102 86 49 43 41 47 38 68 83 87 90 93 110 115 106 54 73 102 119 134 124 104 88 87 88 84 84 87 97 154 138 100 70 7 333 319 313 306 302 292 292 295 294 292 294 292 290 280 269 262